Theta_e
317 317 318 318 317 317 318 318 318 319 319 319 319 320 320 320 321 322 324 326 328 329 329 330 330 330 329 329 329 329 329 328 327 327 328 327 327 327 328 330 331 331 331 331 331 330 330 330 330 330 329 328 327 326 325 327 327 327 328 329 329 330 330 329 328 329 328 328 329 329 329 329 329 328 327 326 326 324 323 323 317 309 305 305 305
317 317 317 317 317 317 317 318 318 318 318 318 318 319 319 319 320 321 322 324 326 328 328 329 330 330 330 330 329 329 329 329 328 327 327 327 326 326 326 327 329 331 332 331 330 330 330 330 330 330 330 329 328 327 326 326 326 326 328 329 329 329 329 329 329 329 329 328 329 329 328 328 329 328 328 327 326 325 323 322 318 313 309 306 305
316 316 316 316 316 316 316 317 317 317 317 317 317 318 318 319 319 320 321 322 324 327 328 328 329 329 330 329 329 329 329 329 328 328 327 327 327 325 325 326 328 330 332 331 331 330 330 330 330 330 330 329 329 328 327 327 326 327 328 329 329 329 330 330 329 329 329 329 329 329 328 328 328 328 327 327 325 324 324 321 317 314 312 307 305
315 315 315 315 315 315 315 316 316 316 316 316 316 316 317 317 318 319 320 320 323 325 327 328 328 328 329 329 329 329 329 329 329 328 328 328 328 327 327 326 328 331 332 331 331 331 330 330 330 330 330 330 329 328 327 326 327 328 328 328 329 330 330 330 330 329 330 329 329 329 329 328 329 328 326 326 325 323 323 320 316 315 314 308 305
315 315 315 315 315 315 315 315 315 315 315 315 315 316 316 316 317 318 318 319 321 324 325 326 327 327 328 329 329 329 329 329 329 329 329 329 329 329 328 327 328 330 331 330 331 330 329 329 330 329 330 329 329 328 326 325 326 327 327 327 329 330 330 330 330 329 329 329 329 329 328 328 329 327 326 325 325 323 322 319 316 317 315 310 305
314 314 314 314 314 314 315 314 314 315 315 315 315 315 315 315 316 317 318 319 320 322 323 324 325 326 327 327 328 328 328 329 329 329 329 329 330 330 329 328 327 329 330 330 330 330 329 329 330 329 329 329 328 328 327 326 327 327 326 327 329 330 330 330 329 329 328 328 329 329 328 328 328 326 325 325 324 324 322 318 316 318 316 312 309
313 313 313 314 313 314 314 314 314 314 315 315 315 314 314 314 315 316 318 319 319 320 321 322 323 324 324 325 326 327 328 328 328 329 328 329 330 330 329 329 328 329 330 329 330 330 328 329 330 329 329 329 328 328 329 328 327 327 327 328 328 329 330 330 328 328 328 328 328 328 328 328 327 326 325 325 324 324 322 317 315 318 316 312 311
312 312 313 313 312 313 313 313 314 314 314 314 314 313 314 314 315 316 317 318 318 318 319 320 321 322 322 323 324 325 327 327 328 328 328 329 329 329 329 329 329 329 329 329 329 330 329 328 329 329 329 329 328 328 329 329 328 328 328 328 327 328 330 329 328 328 329 328 328 328 327 327 327 326 326 325 323 323 323 317 313 316 316 312 311
311 311 311 312 311 312 312 312 313 312 312 312 312 313 313 313 314 315 316 317 317 317 317 317 318 319 320 321 322 323 324 325 326 326 327 328 328 329 329 329 329 329 330 329 329 329 330 329 329 329 329 328 328 329 329 329 328 328 327 327 327 328 329 328 328 329 328 328 328 327 327 326 327 326 326 325 323 322 322 318 313 314 315 313 312
311 311 310 310 310 311 311 311 311 311 311 311 311 312 312 313 313 314 315 316 316 317 316 317 317 317 318 319 320 321 322 323 324 325 326 327 327 328 328 328 329 329 329 329 328 328 329 329 329 328 328 328 329 329 328 328 328 327 326 326 327 328 328 328 328 328 328 327 327 327 326 326 326 326 325 325 324 323 321 318 314 314 314 313 312
310 310 310 309 309 310 310 310 310 310 310 310 310 311 312 313 314 314 314 314 315 315 315 316 316 316 317 317 318 319 320 321 322 323 324 325 326 327 327 327 328 328 328 329 329 328 329 330 329 328 328 328 328 328 328 329 329 328 327 327 327 328 328 327 327 327 327 327 326 326 326 325 325 326 326 325 324 323 321 319 316 315 315 313 313
309 309 309 309 308 309 309 309 309 309 309 308 308 309 310 312 313 313 313 313 313 314 314 315 315 315 316 316 317 317 318 319 320 321 322 323 324 325 327 327 327 327 327 329 329 328 329 330 329 328 328 328 327 327 329 330 330 328 327 327 327 328 328 327 327 327 326 326 326 326 325 324 324 325 325 324 322 321 320 318 317 316 316 315 315
308 308 308 308 308 308 308 308 308 308 308 308 308 307 308 309 311 311 311 311 312 312 312 313 314 314 315 316 316 316 317 317 318 319 320 321 322 323 324 325 326 327 327 328 328 329 328 329 329 328 327 328 327 327 329 330 329 328 328 328 328 328 328 327 326 326 326 326 325 325 324 324 324 324 324 323 321 319 318 317 316 317 316 316 316
307 307 307 307 307 307 307 307 307 307 307 307 307 307 307 307 308 309 309 310 310 310 309 311 312 313 314 315 315 316 316 317 317 318 318 319 320 321 322 323 324 326 327 327 327 328 328 328 328 328 327 328 328 327 328 328 328 328 328 328 328 328 327 326 325 324 325 326 324 324 324 324 324 323 323 322 320 319 318 317 317 317 318 317 317
306 306 306 306 306 306 307 307 307 307 307 307 307 307 306 306 306 306 307 308 308 308 307 308 310 311 312 313 314 314 315 315 316 317 318 318 319 320 321 322 324 325 326 327 327 327 328 328 328 328 327 328 328 327 326 327 327 327 327 327 328 327 326 325 325 325 325 326 325 324 324 325 324 323 322 321 320 319 318 318 318 318 318 319 318
306 306 306 306 306 306 306 306 306 306 306 306 306 306 306 306 305 305 305 305 307 307 306 306 308 310 311 311 312 313 314 315 315 316 317 318 319 319 320 322 323 325 326 326 326 327 328 328 328 329 328 328 328 327 326 327 327 327 327 327 327 326 325 325 325 325 326 326 325 325 325 325 325 323 322 321 321 320 318 318 319 319 318 318 318
305 305 305 305 305 305 305 305 305 305 306 306 305 305 305 305 305 304 304 304 305 306 305 304 305 307 309 310 311 311 312 313 315 315 316 317 317 318 320 321 322 324 325 325 326 327 328 328 328 328 328 327 327 327 328 328 327 327 327 327 326 325 325 325 325 325 325 326 326 326 325 326 325 324 323 322 321 321 320 320 321 320 319 318 317
304 304 304 304 304 304 304 304 304 304 305 305 304 304 305 305 304 304 304 304 303 304 304 303 303 305 307 308 309 310 310 311 313 314 315 316 316 317 319 321 322 322 323 324 325 326 327 328 328 328 328 327 327 327 328 329 328 327 327 326 326 325 326 325 325 325 325 325 325 325 325 325 324 324 324 323 322 321 322 321 321 320 319 318 317
304 304 304 303 303 303 303 303 303 303 303 304 303 303 303 303 303 303 303 303 303 302 302 302 302 303 305 306 307 308 309 310 311 313 314 315 316 316 317 319 320 320 321 323 324 325 326 328 328 328 328 327 327 328 328 327 327 326 326 325 326 326 325 325 325 325 325 325 325 325 324 324 324 323 323 324 323 322 321 320 319 318 319 318 317
303 303 303 303 303 303 302 302 302 302 302 302 302 301 301 302 302 302 302 302 302 301 301 301 301 302 303 304 305 306 307 308 310 311 312 314 315 315 316 316 317 317 319 320 321 322 325 327 328 327 327 327 326 325 324 324 324 324 324 324 324 324 324 324 324 324 324 325 325 324 323 324 324 324 324 323 323 322 321 319 318 317 318 317 316
303 303 303 303 302 302 302 301 302 302 301 302 301 300 300 300 301 301 300 301 300 300 300 301 301 301 302 303 303 304 305 307 308 310 311 312 313 314 314 315 315 316 317 318 319 321 324 327 327 326 324 323 322 322 321 323 323 323 323 323 323 323 323 323 323 323 324 324 324 324 324 323 323 323 322 321 320 319 318 316 315 314 314 314 314
303 303 303 303 302 302 302 301 301 301 301 301 301 300 299 299 300 300 299 300 300 300 300 300 300 300 301 302 302 303 304 305 306 307 309 310 311 312 313 314 314 314 316 318 319 319 320 322 323 323 321 320 321 322 322 323 323 322 322 322 322 322 322 322 323 323 323 322 322 322 321 320 320 319 318 317 316 317 316 315 314 314 314 314 314
303 302 302 302 302 302 302 301 301 301 300 300 300 300 299 298 299 299 299 299 299 300 300 300 300 300 300 301 301 302 302 303 303 304 306 307 308 310 311 312 313 313 315 317 317 316 317 318 318 319 320 321 321 321 321 321 320 320 320 320 320 320 320 321 321 321 320 320 319 318 316 315 315 315 315 314 315 316 316 315 314 314 315 315 315
302 302 302 302 302 302 302 302 301 301 301 300 300 300 299 298 298 299 299 299 299 299 300 300 300 300 300 300 300 301 301 302 302 302 303 304 306 307 308 310 311 312 313 314 313 313 315 318 318 318 319 320 320 320 320 319 319 319 318 317 317 317 318 318 318 318 317 316 315 314 312 312 312 313 313 313 314 314 315 314 313 314 314 314 314
302 302 302 302 302 302 302 302 302 301 301 300 300 300 299 298 298 298 298 298 299 299 299 299 299 299 299 299 299 299 300 301 301 301 302 302 303 305 306 307 309 310 312 313 311 311 313 315 315 315 316 317 318 319 318 318 317 317 315 315 314 314 314 315 315 314 314 313 312 312 312 311 311 312 311 309 309 309 309 307 306 306 307 307 307
302 302 302 302 302 302 302 302 302 302 301 300 300 300 299 298 298 298 298 298 298 298 299 299 299 299 298 298 298 298 298 299 299 300 300 301 302 303 303 304 306 307 309 310 310 310 310 311 312 312 313 314 315 316 316 315 314 314 313 313 312 312 312 313 313 313 312 312 310 309 308 307 306 307 305 303 301 301 301 299 299 299 299 299 299
301 301 301 301 302 302 302 302 302 302 301 301 300 300 299 299 298 298 298 297 297 298 298 298 298 298 298 298 298 298 298 298 298 298 298 299 300 301 302 303 303 304 305 306 307 308 308 309 310 310 311 311 312 313 313 312 312 311 311 311 310 310 309 310 311 311 310 309 306 304 303 303 303 304 302 300 299 298 298 297 297 298 298 297 297
301 300 300 300 301 301 301 302 302 301 301 301 300 300 299 299 299 299 298 298 297 297 297 297 297 297 297 298 298 298 298 298 298 298 298 297 298 299 300 301 302 302 303 303 305 306 306 307 307 308 309 309 310 310 310 309 309 309 309 309 308 307 306 306 306 305 304 304 303 301 301 302 304 304 303 302 303 303 302 301 300 300 301 300 299
300 300 299 299 300 300 300 301 301 301 301 301 301 300 300 299 299 299 299 298 298 297 296 296 296 296 295 296 296 298 298 298 298 298 297 297 297 297 298 299 300 301 301 301 303 304 305 305 306 306 306 307 307 307 306 306 306 306 306 306 305 305 304 304 303 302 302 302 301 301 301 302 303 302 301 301 303 304 304 303 303 304 303 302 301
300 300 299 299 299 299 300 300 300 300 301 301 301 300 300 300 300 299 299 299 298 298 297 297 296 296 295 295 295 296 297 298 298 298 297 296 296 297 297 298 298 299 300 300 301 302 303 304 304 304 304 304 304 303 303 302 303 303 302 302 302 302 302 302 301 301 301 300 300 300 301 302 302 302 300 298 300 302 302 302 303 304 303 302 302
300 300 299 299 299 299 299 299 299 299 300 300 300 300 300 300 300 300 299 299 299 298 298 297 297 296 295 295 295 296 296 297 297 297 297 296 296 296 296 297 297 298 299 299 300 301 301 301 301 301 301 302 302 301 301 301 301 301 300 300 300 300 299 300 300 300 300 300 300 300 301 301 301 302 301 300 301 302 302 302 303 303 303 302 302
299 299 299 299 299 299 299 298 299 299 299 299 299 300 300 300 300 300 299 299 299 299 298 297 297 296 296 295 295 296 296 296 296 297 297 296 296 296 296 296 297 297 297 298 299 299 299 299 299 299 299 299 299 299 299 299 299 299 298 298 298 298 298 298 298 299 299 300 300 300 300 300 300 301 302 302 302 302 302 302 302 302 302 302 301
299 299 299 299 299 299 299 298 298 299 299 298 298 299 299 299 300 300 300 299 299 299 299 298 297 296 296 295 295 296 296 296 296 296 296 296 296 296 296 296 296 297 297 297 297 297 297 297 297 297 297 297 297 297 297 297 297 297 297 296 296 296 297 297 298 298 298 299 299 299 299 300 300 300 300 300 301 301 302 302 302 301 301 301 300
299 299 299 299 299 299 299 298 298 298 298 298 298 298 298 298 299 299 299 299 299 299 299 299 298 297 296 295 295 296 296 296 296 296 296 296 296 296 296 296 296 296 296 296 296 296 296 296 296 296 296 296 296 296 296 296 296 296 296 296 296 296 296 296 296 297 297 297 297 298 298 298 299 299 298 299 299 299 300 300 300 299 299 299 299
299 299 299 299 300 299 299 298 298 298 298 298 298 298 298 298 298 298 299 298 298 298 299 299 298 297 295 295 295 296 296 296 296 296 296 296 296 296 296 296 296 296 296 296 295 296 296 296 296 296 296 296 296 296 296 296 296 296 296 296 296 296 296 296 296 296 296 296 296 296 296 296 297 297 297 297 297 298 298 298 299 299 299 299 299
299 299 298 298 299 299 299 299 298 298 298 298 298 298 298 297 297 298 298 298 298 298 298 298 298 297 296 295 295 296 296 296 296 296 296 297 296 296 296 296 296 296 296 295 295 295 295 295 295 295 295 295 295 295 295 295 295 295 295 295 295 295 295 295 295 295 295 295 296 296 296 296 296 296 296 296 297 297 298 298 298 298 298 298 298
300 299 298 297 299 300 299 298 298 298 298 298 298 298 297 297 297 297 298 298 298 298 298 298 297 296 295 295 295 296 296 296 296 295 296 297 297 296 296 296 296 295 295 295 295 295 295 295 295 295 294 294 294 294 294 294 294 294 294 293 294 293 293 293 293 294 294 294 295 295 295 295 295 295 295 295 295 296 297 297 297 297 297 297 297
300 299 297 297 298 299 299 298 299 298 298 298 298 298 298 298 297 297 297 297 297 297 298 298 297 296 296 295 295 296 296 296 295 295 295 296 296 296 295 295 295 295 295 295 295 295 295 295 295 294 294 294 294 294 294 293 293 292 292 292 292 292 292 293 293 293 294 294 294 294 295 295 295 295 295 295 295 295 295 296 296 296 296 296 296
300 299 298 297 298 298 299 299 298 298 298 298 298 298 298 297 297 297 297 297 297 297 298 298 298 297 296 295 295 296 296 296 295 295 294 295 295 295 295 295 294 294 294 295 295 295 295 295 294 294 294 294 294 294 293 293 292 292 292 292 292 292 293 293 293 293 293 294 294 294 294 294 294 295 295 295 295 295 295 295 296 296 296 296 296
299 299 298 298 298 298 298 298 298 298 298 298 298 298 298 297 297 297 297 297 297 297 297 298 298 298 297 296 295 295 296 296 295 295 295 295 295 295 295 295 295 294 294 294 294 294 294 294 294 294 294 294 293 293 293 292 292 292 292 292 292 293 293 293 293 293 293 294 294 294 294 294 293 293 294 294 294 295 295 295 294 295 295 295 295
299 299 298 297 298 298 298 298 298 298 298 297 298 298 297 297 297 297 297 297 297 297 297 298 297 297 297 296 295 295 296 295 295 295 295 294 294 295 295 295 295 295 294 294 294 294 294 294 294 294 294 293 293 292 292 292 292 292 292 292 292 292 292 293 293 293 293 293 293 293 293 293 293 293 293 293 293 294 294 293 293 294 294 294 294
298 298 297 297 298 298 298 298 297 297 297 298 298 297 297 297 297 297 297 297 297 297 297 297 297 297 297 297 296 295 295 295 295 295 295 294 294 294 294 295 295 295 294 294 294 293 294 294 294 294 293 293 293 293 293 292 292 292 292 292 292 292 292 292 292 292 293 293 293 293 293 293 293 293 293 293 293 293 293 293 293 293 293 294 294
298 297 297 297 298 298 298 298 297 296 297 298 298 297 297 297 297 297 297 297 297 297 297 297 297 297 297 297 296 296 295 295 295 295 295 295 294 294 294 294 294 294 294 294 294 293 293 294 293 293 293 293 293 293 293 293 293 292 292 291 291 291 292 292 292 291 292 292 292 292 293 293 292 292 292 292 292 293 293 293 293 293 293 293 293
298 298 297 298 298 298 298 298 297 296 297 297 297 297 297 297 297 297 297 297 296 297 297 297 297 297 297 297 297 296 296 295 295 294 295 295 295 294 294 294 294 294 294 294 294 294 294 293 293 293 293 293 293 293 293 293 293 292 292 292 291 291 292 292 292 291 292 292 292 292 292 292 292 292 292 292 292 292 292 292 293 293 293 293 293
298 297 297 297 298 298 298 297 297 296 297 297 297 297 296 296 296 296 297 296 296 297 297 297 297 297 297 297 297 296 296 295 295 294 294 295 294 294 294 293 294 294 294 294 294 293 293 293 293 293 293 293 292 292 293 293 292 292 292 292 292 292 291 291 291 292 292 292 292 292 292 292 292 292 292 292 292 292 292 292 292 292 292 292 292
297 297 297 297 297 297 297 297 297 296 297 297 297 296 296 296 296 296 297 296 296 297 297 297 297 297 297 297 297 297 296 296 295 295 295 294 294 294 294 293 293 294 294 293 293 293 293 293 293 292 292 292 292 292 292 292 292 292 292 292 292 291 291 290 291 292 292 292 292 292 292 292 292 292 292 292 292 292 292 292 291 291 292 292 291
297 297 297 297 296 296 296 297 296 296 296 296 296 296 296 296 296 296 297 296 296 297 297 297 297 297 297 297 297 297 296 296 295 295 295 294 294 294 293 293 293 293 293 293 293 293 293 293 293 293 292 291 291 292 292 292 292 292 291 291 291 290 289 289 290 291 292 292 292 292 292 292 292 292 292 292 292 292 292 292 291 291 291 291 291
298 297 297 297 297 296 296 297 296 296 296 296 296 296 296 296 296 296 296 296 296 296 297 297 297 297 297 297 297 297 297 296 296 295 295 295 294 294 294 293 293 293 293 293 293 293 293 292 292 291 290 289 289 289 290 291 291 291 290 291 290 289 288 289 289 291 292 292 292 292 292 292 292 292 292 292 292 292 292 292 292 291 291 292 291
298 298 297 297 297 296 296 297 296 296 296 296 296 296 296 296 296 296 296 296 296 296 296 297 297 297 297 297 297 296 297 297 296 295 295 295 294 294 294 293 292 292 293 294 293 293 292 291 290 289 289 289 289 289 289 289 290 290 289 289 289 288 287 287 288 290 291 292 292 292 292 292 292 292 291 291 291 292 292 292 292 291 291 292 291
298 297 297 297 297 297 296 296 296 296 296 296 295 296 296 296 296 296 296 295 296 296 296 296 296 296 296 296 296 296 296 296 296 296 295 295 294 294 294 294 292 292 293 293 293 292 291 290 289 289 290 290 290 290 289 289 289 289 289 288 287 287 287 288 288 289 290 291 291 292 291 291 291 292 291 291 291 290 290 291 292 292 291 291 291
298 298 297 297 297 297 297 296 296 296 296 296 295 296 296 296 295 295 295 295 296 296 295 295 296 296 296 296 296 296 296 296 296 296 295 295 295 294 294 294 293 293 293 293 292 292 291 291 291 290 290 290 290 290 290 290 290 290 290 289 288 288 288 288 288 289 290 290 291 291 291 291 291 291 291 291 291 290 290 290 290 291 292 291 291
Wind_Speed
16 16 15 15 17 18 18 18 17 18 18 18 18 17 17 15 12 12 13 13 14 16 17 18 18 19 19 19 19 20 21 21 20 21 21 23 23 23 24 26 28 29 28 28 29 30 29 28 28 27 28 28 28 28 28 28 29 27 26 28 29 27 25 24 22 20 21 25 28 28 27 29 30 28 27 24 21 19 17 17 19 20 21 22 21
17 17 16 16 17 18 18 18 17 18 18 18 19 19 20 19 14 12 13 13 12 14 17 18 18 19 18 18 18 19 21 21 21 21 22 24 24 24 24 26 28 29 29 29 30 30 29 28 28 28 27 27 28 29 29 29 29 29 28 29 29 28 28 27 23 21 21 24 27 28 27 29 29 27 27 25 22 21 20 19 20 20 21 21 21
17 19 19 17 18 19 19 19 18 19 19 20 20 19 19 20 18 15 14 12 11 12 16 18 18 19 20 20 19 20 22 22 22 23 24 25 26 26 26 27 29 30 30 30 30 30 29 28 28 27 26 27 27 28 28 28 29 30 30 29 29 29 29 29 27 25 23 23 27 28 27 28 29 28 28 25 22 22 22 21 22 22 20 21 22
18 20 21 20 20 21 22 21 20 21 22 22 22 21 19 19 19 18 17 15 13 13 14 15 16 17 19 20 20 21 22 23 24 25 27 27 27 28 28 28 29 30 29 29 28 27 28 29 29 28 26 26 27 28 28 29 29 30 30 30 31 31 30 28 29 29 26 24 26 27 28 30 30 28 27 26 22 22 22 22 22 22 21 20 21
18 19 22 22 21 22 23 22 21 22 23 24 24 23 22 20 20 19 18 17 16 15 15 16 15 15 16 19 20 22 22 23 24 26 28 28 27 28 28 28 29 30 29 29 28 27 28 29 29 28 27 27 28 29 29 29 30 29 30 31 32 33 33 31 30 30 28 25 26 29 30 30 29 26 26 27 25 23 23 23 21 20 20 19 19
18 19 20 20 20 22 22 21 22 22 22 22 23 22 22 23 21 20 19 18 17 17 18 18 18 17 16 17 17 19 20 22 24 25 26 27 27 28 29 29 30 30 30 30 29 28 28 28 29 30 29 27 28 30 29 29 30 30 30 32 33 33 35 34 30 28 27 26 28 31 30 29 29 28 26 27 27 26 26 25 21 18 18 19 18
19 18 18 19 19 21 21 20 21 21 20 20 20 20 21 22 21 21 20 19 19 20 20 21 21 20 20 19 17 16 18 21 22 22 24 24 25 26 29 30 29 29 31 31 29 29 28 28 31 32 29 27 27 30 31 30 31 30 30 32 33 34 34 33 29 27 25 25 28 31 31 31 31 31 29 26 25 26 25 26 25 21 19 20 21
18 18 18 19 19 20 21 20 20 20 18 19 19 20 20 21 22 22 21 20 20 21 21 22 23 23 24 24 21 19 18 18 18 19 21 22 21 23 25 28 28 28 30 29 28 29 28 30 32 30 28 28 27 28 30 30 31 30 29 31 33 34 35 31 28 26 26 27 26 25 29 32 31 32 32 28 25 25 24 24 27 25 22 22 23
17 17 18 19 19 19 19 19 19 19 18 18 19 19 19 21 23 24 23 22 21 20 20 20 22 23 24 25 25 24 22 21 20 20 20 22 23 24 23 24 25 27 28 28 28 29 30 31 31 28 27 28 28 27 27 29 31 29 28 30 32 34 34 30 26 24 24 28 27 21 21 26 28 31 33 31 30 28 23 21 25 25 24 24 24
18 18 18 19 19 19 19 18 19 20 20 20 19 19 19 20 22 23 24 24 22 20 20 19 18 19 20 21 23 23 23 26 28 26 22 20 22 24 25 25 24 26 28 29 30 30 30 31 30 28 27 28 27 27 27 29 31 28 27 30 31 32 32 30 27 24 22 26 28 25 22 22 25 30 32 33 32 28 23 23 25 25 25 26 24
19 19 19 19 19 20 20 19 20 20 21 21 20 20 20 19 20 22 24 26 25 23 22 21 20 19 18 18 18 18 20 25 28 29 27 24 23 24 26 27 26 26 27 29 30 30 29 31 32 29 27 27 27 27 28 31 30 27 28 30 31 33 32 29 25 23 22 24 26 28 28 24 23 28 32 32 30 27 26 27 26 26 27 27 25
18 19 19 20 20 20 21 21 21 21 22 22 23 23 21 20 19 21 23 25 27 27 26 25 24 22 19 18 18 16 17 21 24 27 29 29 29 29 28 28 28 27 26 27 30 30 29 31 33 30 28 27 26 25 28 30 28 26 27 29 31 32 30 25 22 21 23 24 24 26 29 27 23 24 28 28 25 24 27 28 26 27 28 26 25
17 18 18 20 20 20 21 21 21 22 22 23 24 25 25 24 22 22 23 24 26 27 28 28 28 27 25 22 21 20 19 20 21 23 26 27 29 31 31 30 29 28 26 27 29 30 29 29 30 28 27 27 25 26 28 28 28 27 26 28 30 30 27 23 22 21 21 23 24 25 27 29 26 23 23 24 23 24 27 26 25 28 27 26 26
17 18 19 20 20 20 21 21 21 22 23 23 24 24 26 27 25 24 23 24 25 26 26 27 28 28 28 28 27 26 25 25 25 24 22 23 26 30 32 31 30 29 28 28 28 29 29 30 29 27 27 28 26 26 28 29 28 28 27 28 28 27 26 24 23 22 20 20 23 24 25 29 30 26 24 24 24 26 28 27 26 28 27 26 27
17 18 19 20 20 21 21 21 22 22 23 24 24 23 24 26 27 26 24 24 24 24 24 26 27 27 27 28 28 28 28 29 30 30 27 22 21 25 30 31 30 28 28 28 29 28 28 29 29 27 27 28 25 24 28 30 30 28 28 28 25 24 25 24 22 22 20 19 21 24 26 28 29 27 25 25 25 27 31 29 28 30 28 24 22
18 19 20 21 21 21 21 21 22 22 23 24 24 24 24 25 26 27 25 24 23 23 23 25 27 27 26 26 26 28 29 30 31 33 33 27 20 18 22 26 27 27 28 27 27 27 27 28 29 27 27 26 24 23 27 31 30 29 29 28 25 24 24 23 21 20 19 19 19 22 24 24 24 26 28 30 28 28 31 31 29 31 30 25 21
19 19 20 21 21 21 21 21 22 23 24 24 25 25 25 25 26 26 26 25 25 24 24 24 26 27 26 26 27 28 29 30 30 32 35 32 24 18 15 16 19 24 27 25 24 26 29 30 29 27 26 25 23 23 26 28 28 28 27 26 25 24 23 22 21 19 19 18 17 18 20 20 19 23 30 33 31 29 31 32 31 31 32 28 23
19 19 20 20 20 22 22 22 22 23 23 24 25 25 24 25 25 25 24 24 25 25 25 25 26 27 27 26 27 27 29 30 30 31 33 32 27 22 18 13 13 18 23 24 23 25 29 30 26 24 25 25 23 23 24 24 24 25 25 24 25 25 23 21 20 19 18 18 17 17 19 19 19 21 26 31 33 32 31 31 29 28 30 29 26
19 19 20 20 20 22 23 23 23 24 24 24 25 25 23 23 23 23 22 22 23 24 25 26 28 29 27 26 27 27 28 29 29 29 30 30 27 23 18 13 10 10 13 18 21 23 28 29 25 24 25 23 21 22 22 21 21 22 23 23 23 22 20 17 16 17 17 17 17 17 19 20 21 21 23 26 29 29 29 28 27 27 29 29 28
18 18 19 20 21 22 23 23 24 24 24 24 25 25 24 23 23 23 22 22 22 22 23 25 28 30 29 28 27 28 28 28 28 27 26 26 26 24 21 17 13 10 7 9 11 15 24 27 25 25 23 18 17 19 19 18 18 18 19 19 17 16 16 15 13 14 16 17 17 18 19 21 22 22 23 24 25 25 26 25 27 31 32 29 26
17 18 19 19 20 21 22 24 24 24 24 24 25 27 27 24 24 24 23 23 22 22 22 23 25 28 29 29 29 29 28 28 28 27 26 25 24 23 24 22 18 15 11 6 1 10 16 19 21 23 22 16 14 15 17 17 16 16 16 15 14 14 16 17 15 15 16 18 19 20 20 20 21 21 22 22 23 24 24 24 25 28 30 29 25
16 17 18 19 20 20 21 23 24 24 24 24 24 27 30 29 26 25 25 25 24 24 23 22 23 25 27 29 29 29 28 28 27 27 26 25 24 23 23 22 19 16 11 6 4 11 18 18 18 19 19 16 14 15 17 17 14 12 11 11 11 12 15 17 16 16 17 18 20 21 21 20 20 19 17 18 20 21 20 20 20 22 23 25 23
15 16 17 19 19 19 19 20 22 24 24 24 23 25 30 32 31 28 28 28 28 27 26 24 23 25 27 28 28 27 27 28 28 28 27 26 25 23 22 21 19 17 14 9 7 12 17 17 16 14 14 16 15 16 17 15 11 9 8 8 10 11 13 15 16 16 16 17 18 19 18 17 17 17 16 16 19 20 19 18 17 17 18 20 18
15 16 17 18 19 19 18 18 19 20 22 23 23 24 28 32 33 30 30 31 31 32 30 28 26 26 27 29 28 26 26 26 27 29 28 27 25 23 22 20 19 17 16 13 11 14 14 12 11 11 13 15 15 15 14 12 10 9 8 8 9 10 12 14 15 15 16 16 17 17 16 14 14 15 15 13 14 16 17 18 17 15 15 16 15
15 16 16 17 17 17 17 17 15 16 20 22 21 21 25 31 33 32 31 31 32 33 32 30 29 28 28 29 29 28 27 26 26 27 27 26 26 25 22 21 20 17 16 15 14 14 12 9 9 11 12 14 14 14 14 13 12 11 12 12 12 11 13 15 15 16 17 18 18 18 17 16 15 15 14 11 9 10 10 11 11 9 9 9 9
15 15 15 16 16 16 17 17 14 15 19 21 20 19 22 27 31 32 32 31 31 31 31 30 29 29 29 30 31 31 30 30 29 28 27 25 24 24 22 22 21 19 16 15 14 13 11 10 9 10 11 12 13 14 15 15 15 15 15 15 15 15 16 17 17 17 18 18 18 17 17 16 15 13 13 13 12 11 10 9 10 9 8 7 8
15 15 15 15 15 15 17 17 14 15 19 21 19 20 22 25 29 30 31 31 31 30 30 30 29 29 29 29 30 32 32 33 33 33 31 29 25 23 21 20 20 19 18 16 13 12 11 10 11 11 11 11 12 14 15 16 17 18 19 19 18 17 17 16 16 15 16 16 17 17 17 17 18 18 17 17 15 13 11 10 11 12 12 10 10
14 14 15 15 14 14 16 15 15 17 21 21 19 20 23 24 26 28 28 29 29 29 30 30 31 32 31 30 30 30 31 32 33 34 33 31 28 24 22 20 18 18 18 16 13 11 10 9 11 13 14 14 14 15 17 18 19 21 21 21 20 19 18 17 17 18 18 17 17 18 19 19 19 20 20 20 18 16 14 12 13 13 12 10 10
14 14 16 16 15 15 15 15 14 17 21 22 21 21 22 22 23 25 26 26 26 27 28 29 30 33 34 32 30 29 29 29 30 29 28 28 28 26 24 21 18 15 14 13 10 8 8 8 9 11 13 16 18 20 20 20 20 21 20 20 19 18 18 18 20 21 21 19 18 18 19 18 18 18 18 18 18 18 16 15 15 14 12 11 11
14 14 16 17 16 17 17 17 16 16 18 20 21 22 22 22 21 22 24 24 24 24 26 28 29 32 34 33 30 28 27 26 25 24 25 26 26 25 24 21 18 13 10 9 7 6 6 7 9 10 12 15 18 19 20 19 19 18 18 17 17 16 16 17 19 19 19 19 20 20 19 18 17 17 16 15 16 17 16 15 15 14 13 13 13
14 13 15 16 17 18 19 19 18 17 16 17 18 20 21 22 22 22 23 23 23 23 24 26 28 30 32 32 30 29 27 24 22 22 23 24 24 24 23 23 21 18 14 11 8 7 8 9 11 13 12 13 14 14 13 14 14 14 14 14 14 14 15 16 17 16 17 18 20 19 19 19 19 19 19 19 19 19 19 18 17 17 17 17 17
14 12 13 15 16 17 17 17 18 18 18 18 17 17 18 19 21 22 22 22 22 22 22 23 26 28 30 30 29 28 28 26 22 20 20 21 22 22 22 22 21 19 16 12 10 12 13 13 14 14 14 14 15 15 14 14 14 14 14 15 16 15 15 15 14 13 15 16 16 16 17 18 19 19 20 21 21 21 20 19 19 18 18 18 17
14 14 13 14 15 15 16 17 17 17 18 19 18 18 18 17 18 20 22 22 23 22 21 22 24 26 28 29 27 26 27 27 25 22 19 19 20 21 20 19 18 17 15 15 16 17 16 16 16 16 15 15 15 15 16 16 15 15 15 16 16 16 16 15 13 13 13 13 13 14 16 17 17 17 18 18 19 19 19 17 17 16 15 15 13
14 15 12 11 13 14 14 15 16 16 17 18 19 18 19 19 18 18 19 20 21 21 20 21 23 24 26 28 27 24 23 24 25 24 22 19 19 19 18 17 17 17 17 18 19 19 17 17 17 16 16 16 16 15 16 16 15 14 15 15 15 15 14 14 13 14 15 15 15 16 16 15 14 14 15 16 16 16 16 17 16 15 14 13 12
12 14 11 9 11 13 13 14 15 15 16 17 18 17 18 19 19 18 18 19 19 19 18 19 20 22 25 27 26 23 22 22 23 23 22 21 18 17 17 17 17 17 18 18 18 18 17 16 16 15 14 14 13 13 14 14 14 14 14 14 14 14 13 12 12 13 12 12 13 13 13 12 11 10 11 11 12 14 16 18 18 16 14 13 13
11 13 12 9 9 10 12 13 14 15 15 15 16 16 17 18 19 18 18 19 19 19 18 18 18 20 23 25 24 22 21 22 23 21 20 20 19 17 17 17 17 17 17 17 16 16 15 15 14 14 13 13 12 12 12 12 12 12 12 12 12 12 13 12 12 12 12 12 13 12 11 11 10 9 9 10 12 15 17 18 17 16 14 13 14
8 11 12 10 9 9 11 12 12 13 14 15 15 15 16 17 18 18 18 19 19 19 18 17 17 18 22 23 22 20 20 22 23 19 17 17 18 18 17 16 16 15 15 15 13 13 13 13 12 12 12 12 12 12 11 12 13 13 13 14 14 15 15 15 14 14 15 16 17 16 16 15 14 13 14 14 14 14 14 15 16 16 15 14 13
9 11 14 13 10 9 11 12 12 13 13 13 15 15 14 15 17 17 16 18 19 18 17 16 16 18 21 24 22 19 18 21 24 21 16 15 16 18 17 16 15 14 13 13 12 11 11 11 11 11 11 11 11 11 11 12 14 15 16 17 17 17 18 18 17 16 16 16 16 15 15 15 15 16 16 17 17 16 15 15 16 16 16 15 13
9 12 14 13 11 10 10 11 13 13 12 11 14 16 15 15 16 15 15 17 18 17 17 17 15 16 19 22 22 20 18 20 24 23 19 15 15 15 16 16 15 13 12 11 11 10 9 9 9 9 9 9 9 10 11 12 13 15 15 15 16 16 16 16 16 16 16 16 14 13 13 13 12 12 13 14 15 15 14 14 14 14 14 15 14
8 10 10 10 11 11 11 10 11 12 11 11 13 14 14 15 15 13 13 17 18 16 17 17 16 16 17 19 20 19 17 18 21 22 19 17 15 13 14 15 16 15 13 11 10 10 9 8 9 9 9 9 9 9 9 10 11 11 11 11 12 13 13 14 15 15 14 14 13 13 13 12 12 12 12 12 13 12 12 11 10 11 12 13 12
6 8 8 8 9 10 11 11 10 11 13 14 14 12 12 14 13 11 13 17 18 17 16 16 15 16 17 17 18 17 15 17 19 19 18 17 15 12 12 13 13 13 13 12 10 9 8 7 7 8 9 10 11 11 11 11 11 10 10 10 10 10 11 12 13 13 13 13 13 12 12 12 13 14 14 12 11 11 10 10 9 10 11 10 9
7 7 7 8 8 10 11 11 10 11 12 12 12 13 15 15 12 12 15 18 17 16 16 15 14 15 15 15 16 15 14 15 18 17 16 17 15 13 12 11 10 10 11 11 11 10 9 8 8 8 9 11 13 13 12 12 11 10 10 9 9 8 9 9 8 8 10 11 12 12 12 12 11 11 11 10 10 11 11 10 10 9 9 7 8
7 7 7 8 9 9 10 10 11 12 11 8 8 12 16 15 12 13 16 17 17 17 17 15 14 14 14 13 14 14 14 14 15 15 15 16 16 14 12 11 10 9 9 9 11 11 10 8 8 7 7 9 9 8 8 8 8 7 6 7 8 9 9 9 8 7 8 10 11 12 10 9 8 9 9 8 8 10 11 10 9 8 7 6 7
6 7 7 9 9 8 9 10 11 11 11 9 9 12 15 14 12 13 14 15 16 17 17 15 13 14 14 12 11 12 13 14 14 14 14 14 14 15 14 11 9 9 9 8 8 9 8 8 7 6 5 5 4 4 6 8 6 4 4 5 6 5 6 8 9 10 10 10 11 10 7 7 8 8 7 6 6 7 9 9 8 7 6 5 6
6 7 7 8 8 9 10 11 10 10 11 11 11 12 13 14 13 12 12 13 16 17 16 14 12 13 13 12 11 11 12 12 12 13 14 13 13 14 15 12 8 7 8 8 7 7 7 8 8 7 5 4 4 3 3 5 6 4 3 3 2 1 3 6 9 11 12 11 9 7 7 8 8 6 4 4 5 6 7 7 6 5 4 3 4
6 8 8 7 8 9 10 10 10 10 11 13 13 13 13 14 13 13 13 14 15 15 15 14 13 12 12 12 11 11 11 11 11 12 13 13 12 14 15 14 10 7 8 8 7 6 6 6 7 6 5 3 3 4 4 2 2 4 5 3 3 2 1 4 8 11 12 10 7 6 7 7 5 3 4 7 7 7 6 6 5 5 5 6 4
5 8 7 7 9 10 9 9 11 11 11 12 13 13 12 12 13 14 15 14 14 14 14 13 13 12 11 11 11 11 10 10 10 11 11 11 12 14 16 15 11 9 8 9 8 6 6 6 5 5 4 3 1 1 2 3 2 1 4 4 4 2 1 4 9 12 11 8 6 6 7 8 7 6 6 7 8 7 4 4 5 6 6 5 6
6 8 6 5 8 10 9 8 10 11 11 11 12 12 12 13 13 14 13 12 13 14 13 12 12 12 12 11 11 12 11 11 10 9 9 10 12 14 15 15 12 9 8 9 9 6 5 6 7 6 5 4 2 0 2 3 1 3 3 3 4 3 1 5 9 12 11 9 8 6 5 7 8 7 5 7 9 8 7 6 5 5 4 3 3
5 6 6 6 7 9 8 8 10 11 10 11 12 12 12 12 14 14 13 12 13 13 13 12 12 12 12 11 12 12 11 11 10 9 8 9 9 10 12 13 11 7 6 8 9 8 8 8 7 5 4 4 4 3 0 3 3 3 4 4 5 4 2 5 8 11 11 11 9 7 5 6 7 5 3 4 7 6 7 8 6 5 6 5 2
4 5 6 6 7 8 8 8 10 10 9 11 13 13 12 12 13 14 15 13 12 12 12 12 12 12 12 12 12 12 11 10 9 9 9 8 7 7 9 12 11 7 4 5 8 9 10 10 8 5 4 5 4 3 2 2 2 3 3 3 3 3 3 5 7 10 11 11 11 10 7 6 6 4 3 4 3 5 7 9 9 8 9 7 3
5 5 6 6 7 8 8 8 9 10 9 11 13 12 11 13 14 14 14 14 13 12 13 12 12 12 12 12 12 12 12 11 10 9 8 8 7 6 6 9 11 8 4 4 7 8 8 9 8 7 6 6 4 3 4 4 4 4 3 2 1 1 3 5 6 9 11 11 11 11 8 5 6 7 6 5 4 4 4 6 9 10 9 8 5
Wind_Direction
12 5 355 355 359 354 347 345 343 339 337 337 338 334 330 328 320 305 292 290 302 309 308 306 303 300 296 290 284 277 274 275 274 271 269 270 270 269 269 268 264 258 252 248 247 246 244 242 241 239 236 235 234 230 227 224 224 224 221 223 225 221 218 218 217 215 212 211 211 208 204 201 197 199 208 209 203 203 209 215 213 206 202 203 204
11 2 355 358 360 356 349 345 339 337 337 336 335 334 335 335 332 320 303 293 303 316 316 310 304 301 300 296 291 284 279 275 274 272 270 271 272 271 270 269 266 260 252 248 248 248 247 245 243 240 237 236 234 231 229 225 225 225 223 225 227 223 220 218 215 215 215 212 211 208 204 201 197 197 206 211 204 202 208 213 215 211 205 204 205
13 2 359 2 3 1 355 347 346 349 346 343 343 341 338 338 334 328 319 308 305 312 315 316 311 306 303 299 296 292 287 281 277 275 273 272 271 270 268 266 264 260 254 251 250 249 250 247 242 239 235 232 230 229 229 228 228 227 225 227 229 225 221 220 218 217 218 214 211 209 203 198 197 198 206 211 205 203 211 215 214 213 212 209 207
15 4 3 6 5 5 359 351 356 359 354 352 353 348 344 344 339 334 329 319 308 302 305 311 312 307 303 303 302 298 293 289 283 277 274 273 271 269 267 265 264 261 257 256 253 251 251 249 245 242 235 230 228 226 228 230 229 227 226 227 229 226 222 221 221 221 219 214 210 207 201 197 201 204 206 208 204 205 213 216 214 215 218 216 208
16 7 4 4 5 6 357 354 2 1 355 357 356 351 351 351 345 340 333 322 311 303 299 302 303 301 302 305 305 303 300 295 288 280 274 272 271 269 267 268 270 266 261 260 258 256 256 253 248 244 238 234 231 229 229 230 229 227 226 227 226 223 220 221 223 223 223 218 208 203 201 202 204 203 203 207 206 207 210 212 215 217 217 218 211
16 10 6 2 4 3 356 357 5 359 355 358 354 353 357 353 346 342 333 323 314 305 299 298 296 296 297 298 300 306 306 297 291 288 281 276 274 270 267 268 271 269 263 262 261 260 259 254 249 246 240 236 235 232 231 230 228 228 228 228 227 224 222 222 223 223 223 220 211 203 200 202 200 194 198 209 209 206 204 202 207 215 212 212 213
15 11 7 3 2 1 359 1 3 356 354 355 351 355 359 352 348 346 337 326 317 308 302 297 295 293 291 290 290 299 303 299 297 297 291 286 282 276 271 267 267 266 265 265 263 260 258 254 250 247 243 242 239 235 231 230 230 230 229 230 230 230 229 225 222 223 223 219 215 207 201 199 195 190 194 203 205 208 206 196 196 207 209 206 208
15 12 9 5 2 1 1 2 1 356 354 353 353 358 359 356 357 356 348 339 330 320 311 301 296 294 292 292 290 288 293 299 303 302 293 286 282 281 276 268 264 265 265 264 263 261 258 255 251 248 246 245 242 238 235 232 230 229 228 230 230 230 230 225 220 222 222 217 216 212 205 200 196 197 199 194 193 204 210 198 193 200 204 204 207
20 16 11 6 4 2 2 3 1 357 355 357 358 359 1 3 5 5 3 358 348 338 330 317 307 300 297 296 293 289 289 288 288 295 296 287 279 277 279 273 265 262 262 263 264 263 258 254 250 246 246 245 242 241 239 233 229 229 229 231 230 229 230 226 222 223 218 215 218 219 213 205 202 204 203 197 194 198 202 198 194 197 202 204 208
21 19 13 8 6 3 3 4 3 1 0 1 1 1 5 7 8 10 13 10 5 358 350 342 332 322 313 308 302 297 292 284 279 282 289 290 283 275 273 274 269 263 262 264 265 263 259 254 250 247 249 248 245 244 239 231 228 230 231 231 231 231 229 224 224 228 221 214 215 216 213 212 210 207 202 199 198 196 196 194 192 196 201 201 205
20 19 13 8 7 6 5 6 7 6 3 3 3 4 7 8 8 11 14 14 14 13 8 3 357 350 342 335 326 313 300 290 285 282 281 281 281 276 271 270 271 267 262 262 262 262 261 256 252 251 252 249 244 240 234 227 225 226 228 231 232 231 227 220 219 226 222 212 211 212 212 213 213 210 207 202 197 197 201 197 190 193 198 198 200
17 17 11 9 9 8 7 8 9 8 6 5 5 4 6 9 10 11 13 14 13 13 16 16 11 5 2 355 350 341 321 306 298 292 286 279 276 276 274 270 269 268 265 263 262 262 261 257 254 253 252 247 240 232 228 226 224 223 224 228 230 229 225 220 221 225 221 215 212 211 212 211 207 210 212 205 195 197 201 198 195 196 199 201 202
17 16 13 12 11 9 9 9 9 9 7 7 5 2 4 8 10 11 13 12 10 9 12 16 17 14 11 8 4 359 350 338 325 310 298 287 277 272 271 270 268 267 267 265 263 261 260 259 257 253 246 242 236 229 227 227 224 221 221 224 227 227 223 222 225 226 222 219 218 214 213 209 205 207 208 198 194 201 199 196 198 199 200 205 209
19 18 15 14 12 11 10 9 9 8 7 7 6 2 2 3 6 9 12 12 11 9 8 11 16 17 16 15 11 7 3 360 354 342 324 303 286 274 270 268 267 266 265 265 264 262 259 258 258 252 242 237 233 226 225 225 222 219 220 223 222 219 219 221 223 221 216 216 220 220 216 210 205 205 200 193 198 208 203 197 198 198 199 204 208
22 20 18 17 14 12 11 9 8 8 7 6 6 4 3 1 0 4 9 11 10 10 8 8 12 16 17 18 15 10 7 3 360 356 347 331 305 285 274 269 268 267 266 265 263 262 260 258 255 247 238 234 232 226 221 221 219 218 221 224 220 214 216 219 217 215 210 209 215 219 217 212 208 206 201 196 200 205 203 201 202 200 201 206 205
24 22 20 18 15 13 11 10 10 10 9 8 7 5 5 3 359 360 4 6 7 8 8 8 10 13 16 18 18 14 9 5 2 359 355 347 333 308 285 274 271 271 269 267 263 260 257 252 246 239 235 233 231 227 222 217 214 216 220 221 219 216 216 215 211 211 212 210 213 218 219 216 212 208 206 203 201 200 202 206 206 201 202 207 203
24 22 21 19 16 14 12 12 15 15 13 11 9 7 7 5 2 1 1 1 2 7 9 7 8 12 13 15 18 17 13 9 5 4 1 356 350 345 327 298 280 274 271 268 263 257 250 243 236 229 228 227 224 224 223 217 213 215 215 212 211 214 217 214 210 210 212 213 214 218 222 221 215 210 210 210 206 202 203 205 203 198 200 204 200
26 23 20 18 17 15 13 14 16 16 15 13 9 8 7 4 2 4 4 360 358 4 11 10 9 13 15 16 18 18 16 13 9 7 7 4 1 1 355 335 301 284 278 272 267 255 242 236 229 218 215 219 221 220 219 216 214 213 210 206 205 209 214 213 210 210 209 210 213 213 214 218 217 212 211 213 213 212 211 208 200 198 204 208 203
27 25 22 20 20 18 17 17 18 17 17 15 9 6 7 5 3 5 7 3 360 4 11 13 14 16 18 17 18 19 17 15 12 10 10 11 13 13 3 347 327 305 284 273 267 250 231 224 219 211 209 211 213 211 208 209 212 211 208 204 202 203 208 209 210 209 205 206 211 209 205 209 213 211 208 211 215 219 220 215 207 208 212 211 207
28 26 23 22 23 22 20 20 21 18 18 18 13 9 10 8 5 7 8 7 7 10 13 14 16 20 23 22 21 21 20 17 14 13 13 15 20 24 20 12 5 358 324 273 253 226 215 215 211 201 195 193 193 198 200 201 203 203 202 200 199 203 206 202 199 199 197 199 205 204 201 203 207 208 208 210 213 218 220 216 210 212 212 206 204
28 26 25 24 26 26 23 24 25 21 19 21 16 13 16 14 9 10 11 10 12 15 17 18 16 19 25 27 26 24 22 19 17 16 17 17 19 24 28 28 23 12 352 323 196 149 166 184 187 176 171 174 184 188 188 187 188 191 194 195 194 197 196 190 186 189 194 197 198 198 198 201 203 206 208 207 204 205 208 206 203 207 209 207 205
29 27 28 27 27 27 25 26 27 23 21 23 18 14 19 22 19 17 17 18 18 17 19 21 20 19 24 26 27 26 25 25 24 22 22 21 19 21 27 30 30 25 14 6 58 96 112 130 145 148 151 165 180 181 177 179 184 187 182 176 173 176 181 183 186 192 195 197 199 198 194 192 192 193 193 192 191 195 200 201 202 207 208 208 208
31 30 30 28 28 27 24 24 27 25 21 22 20 16 19 24 26 25 24 25 25 24 23 23 21 19 19 20 21 23 25 29 31 30 29 29 27 27 30 33 35 32 30 39 60 72 87 108 125 133 146 162 171 174 173 174 176 169 156 152 158 166 177 183 187 192 192 193 195 192 184 179 179 178 175 171 171 177 182 182 182 186 185 185 188
33 31 30 29 28 27 24 21 24 27 24 21 20 18 19 24 27 28 28 28 27 27 28 27 23 21 20 19 20 21 22 26 30 32 32 33 33 33 33 35 37 33 30 37 54 67 81 105 125 135 150 160 164 167 166 159 156 150 141 142 151 165 179 183 183 185 182 178 179 177 170 166 169 169 168 162 158 164 170 167 164 168 172 171 171
34 32 30 30 28 27 26 22 19 22 24 25 24 19 18 23 28 29 29 29 29 28 29 29 28 28 28 27 25 24 23 23 24 27 28 29 31 33 33 35 34 29 26 29 39 56 77 99 112 120 131 140 149 155 150 144 147 149 144 142 146 157 169 171 169 169 165 162 161 160 154 152 155 158 157 151 147 148 149 147 148 157 169 169 166
36 33 29 28 26 24 24 22 17 12 17 26 31 27 20 22 27 29 29 29 29 29 28 29 30 30 30 30 27 24 23 23 23 23 22 22 23 26 29 35 38 36 34 33 35 48 71 91 100 104 111 120 132 140 138 136 139 140 139 141 144 150 156 158 160 160 156 152 150 144 138 134 136 138 130 116 111 111 111 116 121 122 128 139 140
37 34 29 27 27 23 22 22 16 7 11 22 30 31 28 26 25 26 28 28 28 28 27 26 27 26 25 25 22 20 20 22 22 21 21 20 19 19 21 26 33 38 42 41 41 48 61 79 96 106 113 119 124 127 130 133 135 136 138 141 142 142 143 146 149 148 143 139 131 121 116 114 111 109 106 101 100 99 102 113 118 110 106 117 125
40 38 31 27 28 26 23 22 14 6 11 18 22 24 27 27 25 25 25 25 27 28 29 28 27 26 23 19 16 15 17 20 21 19 18 18 19 19 19 18 22 32 39 40 46 56 61 68 86 103 114 118 119 120 124 128 132 133 135 138 138 135 131 130 129 125 124 126 121 113 110 112 113 113 113 110 108 106 103 105 105 96 91 99 111
42 40 34 31 31 28 26 26 19 9 10 14 15 17 21 23 23 23 22 22 24 27 29 29 28 26 23 18 14 13 15 19 22 20 19 19 20 20 20 19 19 28 39 42 46 61 70 74 82 92 102 108 111 112 112 112 115 118 119 122 123 123 122 122 120 119 121 122 121 118 120 125 131 137 137 128 121 121 119 111 101 93 88 88 92
40 39 36 35 34 31 32 35 30 18 11 11 11 11 13 15 18 19 16 16 20 23 25 26 26 24 22 20 17 16 17 19 21 21 21 22 22 21 22 21 18 21 28 24 16 30 58 79 88 92 100 107 110 111 110 110 110 110 110 112 111 110 112 115 116 120 124 124 125 129 134 138 139 141 145 143 140 141 138 130 123 123 121 111 101
39 37 36 35 32 31 33 33 29 25 23 18 12 9 8 8 11 14 12 11 14 18 21 23 24 22 20 19 19 19 18 17 17 19 20 22 23 23 23 22 22 21 17 8 11 39 59 69 77 82 90 96 97 100 104 107 106 105 106 108 105 102 104 109 115 120 126 129 132 136 140 141 136 134 137 142 145 146 144 142 140 140 137 129 121
42 41 36 32 30 31 31 27 25 26 26 23 19 15 10 6 5 7 8 7 9 12 16 20 21 19 17 16 17 16 16 15 16 17 18 20 24 27 26 25 27 26 19 18 40 60 65 68 70 72 76 81 83 86 90 92 94 95 97 100 101 101 104 110 117 124 126 129 132 133 134 135 134 134 136 138 140 141 139 141 144 144 145 144 139
45 45 39 31 29 29 28 25 24 23 21 20 20 19 15 10 6 4 4 5 5 5 8 15 18 17 14 14 14 13 12 14 17 17 15 16 24 30 31 30 33 35 35 41 54 59 60 64 68 69 72 77 80 83 87 89 93 97 99 99 101 106 111 117 125 129 130 132 133 130 131 133 134 134 135 136 137 137 135 136 139 139 138 138 133
37 34 34 33 30 26 24 24 22 18 17 17 17 16 14 12 10 8 7 6 5 2 3 8 13 14 12 11 11 10 10 13 16 17 16 18 23 30 33 33 36 40 44 49 54 56 57 60 63 65 69 74 78 82 85 87 90 95 99 101 102 104 108 114 121 122 121 123 124 123 125 128 128 128 130 130 132 134 133 131 129 123 118 119 120
29 20 20 31 32 24 22 23 19 15 14 14 14 14 14 12 12 12 10 9 8 6 3 3 8 11 10 10 10 10 10 11 13 14 16 19 22 27 33 37 38 40 44 48 50 52 54 57 59 61 63 67 72 77 82 85 88 91 94 98 101 103 103 105 109 110 110 113 114 115 120 125 126 129 135 137 137 136 134 131 129 128 127 127 126
25 15 12 26 36 25 17 17 15 12 12 12 12 13 13 12 12 12 10 11 12 9 5 3 6 10 11 10 10 12 12 9 6 7 12 17 17 17 25 36 38 37 40 44 45 48 52 54 56 59 60 61 65 69 74 81 85 88 90 93 97 101 103 104 107 110 111 111 109 110 114 120 125 133 140 142 143 142 140 138 134 131 131 129 124
13 12 15 28 40 29 17 13 10 9 11 11 10 11 12 12 11 9 9 10 11 9 8 7 6 11 13 12 13 17 13 4 0 4 11 15 14 11 17 28 35 36 39 41 41 44 49 52 54 58 61 64 67 70 74 79 83 87 89 90 93 97 99 100 103 108 112 112 111 111 112 110 110 114 115 115 118 124 131 136 132 124 121 122 120
5 15 26 34 36 23 16 11 5 5 8 7 7 9 9 8 8 8 8 9 8 7 7 5 2 7 14 15 16 21 15 1 358 5 14 17 16 15 16 20 25 28 32 36 39 42 47 50 53 55 58 63 67 70 76 82 87 90 92 92 96 99 100 100 101 103 105 105 105 108 113 113 114 116 114 110 108 110 117 130 133 127 123 122 118
7 13 22 27 23 16 11 6 3 7 10 8 8 7 4 6 9 7 3 7 9 5 3 4 0 359 7 12 16 20 18 6 360 3 11 16 19 20 17 14 16 21 26 31 35 40 45 49 51 52 54 59 64 69 78 87 93 96 97 100 103 104 102 101 101 100 100 100 100 101 107 111 116 124 126 122 119 120 123 130 133 132 131 132 127
12 7 9 16 18 17 12 6 6 8 5 3 5 4 359 3 8 4 1 10 14 7 2 4 1 354 360 12 15 15 17 13 5 3 7 12 15 18 17 14 15 18 23 28 31 34 38 43 47 47 48 56 63 69 77 87 92 93 96 101 105 105 104 102 100 99 99 101 103 104 101 97 99 108 114 116 118 122 123 122 125 130 134 136 136
11 6 4 8 13 11 8 7 8 5 1 2 7 6 356 352 356 360 5 10 12 6 2 4 0 353 356 9 15 17 18 14 6 2 4 8 12 15 17 18 18 16 18 22 25 26 30 36 42 46 52 62 68 65 63 69 76 77 79 85 91 96 101 103 103 104 104 102 103 107 105 99 95 94 94 97 103 107 106 103 106 115 121 127 139
7 4 356 356 4 7 8 9 7 2 1 3 5 4 1 357 357 5 7 6 5 3 359 359 357 352 352 2 14 20 18 10 4 1 0 6 12 14 14 18 22 18 17 18 17 19 27 35 40 49 61 69 69 61 51 50 53 59 70 80 83 86 95 99 101 110 115 112 107 103 99 98 97 95 99 112 119 118 113 105 99 107 118 128 143
2 360 353 356 4 5 3 3 360 357 1 4 358 357 360 1 4 8 6 6 7 5 360 356 353 349 351 1 12 14 10 7 6 3 0 4 10 11 10 17 23 22 20 17 15 21 30 32 30 43 65 76 81 82 75 64 51 40 50 72 80 83 86 82 75 84 102 105 100 92 87 88 93 96 100 106 113 124 132 126 115 126 147 150 137
4 1 0 1 2 360 356 355 352 352 358 1 353 352 356 360 3 4 3 3 4 2 359 358 353 349 353 2 6 7 8 8 6 3 3 3 3 2 6 16 23 19 16 14 15 20 18 10 9 30 62 74 88 118 123 112 97 56 42 68 88 104 114 110 102 104 111 110 101 93 89 95 99 98 92 79 78 111 137 137 127 134 154 169 160
8 1 3 358 354 356 1 0 356 356 360 357 349 349 356 359 358 358 359 1 2 360 359 360 358 355 357 360 360 4 10 8 0 360 5 5 358 355 1 9 15 12 9 9 17 25 16 4 6 19 31 38 47 66 106 132 145 146 113 96 109 174 168 151 141 135 131 124 113 105 110 113 107 102 109 108 94 95 109 117 119 118 108 110 167
7 0 6 1 353 351 355 357 354 355 358 356 350 351 355 355 352 353 357 359 0 0 1 2 359 356 357 358 358 2 7 3 356 356 2 4 360 356 358 2 5 7 5 0 5 22 22 7 3 4 358 2 45 58 45 51 133 160 167 189 236 268 220 169 165 155 142 129 116 118 128 134 136 136 132 126 115 99 80 76 92 102 84 64 70
343 353 360 1 357 353 352 352 351 350 352 354 353 352 352 350 349 351 353 354 358 2 5 4 0 357 357 358 357 355 357 1 1 360 359 359 355 352 355 0 5 8 7 2 4 18 20 359 338 326 321 324 350 99 73 44 37 176 202 224 254 276 156 165 174 169 158 143 131 133 135 139 148 161 164 151 139 127 98 70 82 101 102 78 62
355 2 357 350 354 354 351 351 353 352 351 352 353 352 350 347 346 348 352 356 359 2 2 3 2 359 358 357 356 353 353 359 2 359 353 351 350 350 354 359 1 358 357 360 4 5 350 325 312 308 316 337 348 296 158 152 221 269 259 267 297 306 186 174 184 184 174 158 145 143 145 146 147 152 171 177 167 153 137 125 114 109 115 109 58
339 346 339 344 360 1 355 353 354 354 354 354 354 353 350 346 347 351 356 357 356 355 357 1 2 359 357 357 356 352 350 353 359 358 350 347 353 354 350 350 354 358 356 355 351 338 324 325 331 332 342 9 18 8 180 181 219 273 289 295 294 284 215 176 185 191 187 178 171 171 172 169 160 140 124 172 190 187 166 154 147 135 133 139 136
315 326 328 337 351 349 341 342 346 347 348 352 352 350 348 346 347 351 353 352 349 349 351 354 356 357 357 357 356 353 350 349 354 356 350 346 353 351 337 338 353 14 15 338 327 322 326 341 358 2 355 8 21 8 327 296 293 304 310 306 289 255 189 167 177 186 190 192 195 200 203 195 185 171 129 124 166 202 199 190 182 162 142 135 137
308 315 316 320 329 329 329 336 339 336 339 347 348 345 343 344 347 349 349 348 349 350 350 349 349 351 353 352 351 351 350 346 345 346 344 340 342 342 333 333 344 357 356 327 323 327 334 344 350 351 351 355 352 331 321 323 321 313 305 304 293 197 174 167 170 178 184 191 198 205 209 194 179 187 189 178 182 210 221 205 194 181 159 137 132